Tracking 22130 objects as of 21-Jan-2021
HD Live streaming from Space Station
objects crossing your sky now

STARLINK-1720

Track STARLINK-1720 now!
10-day predictions
STARLINK-1720 is classified as:


NORAD ID: 46675
Int'l Code: 2020-073F
Perigee: 553.3 km
Apogee: 555.3 km
Inclination: 53.1 °
Period: 95.6 minutes
Semi major axis: 6925 km
RCS: Unknown
Launch date: October 18, 2020
Source: United States (US)
Launch site: AIR FORCE EASTERN TEST RANGE (AFETR)
aabbcc
Your satellite tracking list
Your tracking list is empty




NASA's NSSDC Master Catalog

Two Line Element Set (TLE):
1 46675U 20073F   21021.58335648 -.00033505  00000-0 -22408-2 0  9994
2 46675  53.0539  10.3072 0001448  53.0019 179.3475 15.06403934  1757
Source of the keplerian elements: AFSPC